{"data":{"norad_id":64853,"epoch":"2026-05-25T02:40:24.007008Z","epoch_age_seconds":61349,"freshness":"FRESH","line1":"1 64853U 25152M   26145.11138897  .00003122  00000+0  22033-3 0  9997","line2":"2 64853  97.4478   0.4074 0002333  83.8697 276.2796 15.05655870 46915","mean_motion":15.0565587,"eccentricity":0.0002333,"inclination_deg":97.4478,"raan_deg":0.4074,"arg_perigee_deg":83.8697,"mean_anomaly_deg":276.2796,"bstar":0.00022033,"rev_number":4691,"period_min":95.639384051284,"perigee_km":547.87693234093,"apogee_km":551.1093645682,"semimajor_km":6927.6301484546,"source":"CELESTRAK","updated_at":"2026-05-25T13:38:20.614264Z"}}